Location: Whitehorse
(60.7170°N, 135.0500°W)
Time: 16:26:35
(UTC-07:00)

SL-16 R/B - Visible Passes

Search period start: 03 September 2015 00:00
Search period end: 13 September 2015 00:00
Orbit: 843 x 847 km, 71.0° (Epoch: 02 September)

Date Brightness Start Highest point End Pass type
(mag) Time Alt. Az. Time Alt. Az. Time Alt. Az.
03 Sep 4.6 03:19:57 10° ESE 03:21:34 11° E 03:23:26 10° ENE visible
03 Sep 3.1 04:59:07 10° S 05:04:26 44° ESE 05:09:48 10° NE visible
04 Sep 4.6 03:06:10 10° ESE 03:07:33 11° E 03:09:14 10° ENE visible
04 Sep 3.1 04:45:40 13° S 04:50:24 43° ESE 04:55:45 10° NE visible
05 Sep 4.6 02:52:25 10° ESE 02:53:34 11° E 02:54:59 10° E visible
05 Sep 3.1 04:32:14 16° S 04:36:23 42° ESE 04:41:42 10° NE visible
05 Sep 2.4 06:14:44 10° SW 06:20:23 66° NW 06:26:04 10° NE visible
06 Sep 4.6 02:38:43 10° ESE 02:39:34 10° E 02:40:40 10° E visible
06 Sep 3.1 04:18:45 19° S 04:22:21 41° ESE 04:27:40 10° NE visible
06 Sep 2.4 06:00:41 10° SW 06:06:20 67° NW 06:12:02 10° NE visible
07 Sep 4.6 02:25:13 10° E 02:25:33 10° E 02:26:11 10° E visible
07 Sep 3.1 04:05:15 22° S 04:08:20 40° ESE 04:13:37 10° NE visible
07 Sep 2.4 05:47:08 13° SW 05:52:18 68° NW 05:58:00 10° NE visible
08 Sep 3.1 03:51:43 25° SSE 03:54:19 39° ESE 03:59:34 10° NE visible
08 Sep 2.3 05:33:36 16° SW 05:38:16 69° NW 05:43:57 10° NE visible
09 Sep 3.1 03:38:09 28° SSE 03:40:17 39° ESE 03:45:31 10° NE visible
09 Sep 2.3 05:20:02 19° SW 05:24:13 70° NW 05:29:55 10° NE visible
10 Sep 3.1 03:24:33 30° SSE 03:26:16 38° ESE 03:31:29 10° NE visible
10 Sep 2.3 05:06:27 22° SW 05:10:10 71° NW 05:15:53 10° NE visible
11 Sep 3.1 03:10:57 32° SE 03:12:15 37° ESE 03:17:26 10° NE visible
11 Sep 2.3 04:52:50 26° SW 04:56:08 72° NW 05:01:51 10° NE visible
12 Sep 3.0 02:57:19 34° SE 02:58:14 36° ESE 03:03:23 10° NE visible
12 Sep 2.3 04:39:12 30° SW 04:42:05 74° NW 04:47:48 10° NE visible
12 Sep 3.3 06:21:52 10° W 06:27:04 35° NNW 06:32:16 10° NE visible
